Weather History for KGDV - October, 2012

Change the Weather History Date:

Monday, October 8, 2012

  Actual Average Record
Temperature  
Mean Temperature 47 °F -  
Max Temperature 57 °F 59 °F 78 °F (2010)
Min Temperature 37 °F 34 °F 24 °F (2000)
Degree Days  
Heating Degree Days 18    
Moisture  
Dew Point 33 °F    
Average Humidity 56    
Maximum Humidity 76    
Minimum Humidity 43    
Precipitation  
Precipitation 0.00 in - - ()
Sea Level Pressure  
Sea Level Pressure 29.81 in    
Wind  
Wind Speed 16 mph (NW)    
Max Wind Speed 23 mph    
Max Gust Speed 32 mph    
Visibility 10 miles    
Events      
Averages and records for this station are not official NWS values.
T = Trace of Precipitation, MM = Missing Value Source: NWS Daily Summary

Daily Weather History Graph

Daily Weather History Graph

Search for Another Location

Airport or City:

Trip Planner

Search our weather history database for the weather conditions in past years. The results will help you decide how hot, cold, wet, or windy it might be!

Date:

Astronomy

Oct. 08, 2012 Rise Set
Actual Time 7:08 AM MDT 6:23 PM MDT
Civil Twilight 6:37 AM MDT 6:54 PM MDT
Nautical Twilight 6:02 AM MDT 7:29 PM MDT
Astronomical Twilight 5:26 AM MDT 8:05 PM MDT
Moon No Moon Rise 2:38 PM MDT (10/8)
Length of Visible Light 12h 16m
Length of Day
11h 15m
Last Quarter, 46% of the Moon is Illuminated
Oct 8
Last Quarter
Oct 15
New
Oct 21
First Quarter
Oct 29
Full
Nov 6
Last Quarter

Hourly Weather History & Observations

Time (MDT) Temp. Windchill Dew Point Humidity Pressure Visibility Wind Dir Wind Speed Gust Speed Precip Events Conditions
12:15 AM 57.2 °F - 35.6 °F 44% 29.69 in 10.0 mi West 18.4 mph 23.0 mph N/A   Overcast
12:35 AM 57.2 °F - 35.6 °F 44% 29.70 in 10.0 mi West 18.4 mph 24.2 mph N/A   Overcast
12:55 AM 55.4 °F - 35.6 °F 47% 29.70 in 10.0 mi WNW 16.1 mph - N/A   Mostly Cloudy
1:15 AM 55.4 °F - 37.4 °F 51% 29.71 in 10.0 mi WNW 15.0 mph - N/A   Mostly Cloudy
1:35 AM 53.6 °F - 37.4 °F 54% 29.71 in 10.0 mi WNW 15.0 mph - N/A   Mostly Cloudy
1:55 AM 53.6 °F - 37.4 °F 54% 29.71 in 10.0 mi WNW 13.8 mph - N/A   Partly Cloudy
2:15 AM 51.8 °F - 37.4 °F 58% 29.72 in 10.0 mi WNW 17.3 mph - N/A   Clear
2:35 AM 51.8 °F - 37.4 °F 58% 29.72 in 10.0 mi NW 16.1 mph 20.7 mph N/A   Scattered Clouds
2:55 AM 51.8 °F - 37.4 °F 58% 29.72 in 10.0 mi NW 13.8 mph 18.4 mph N/A   Partly Cloudy
3:15 AM 51.8 °F - 37.4 °F 58% 29.72 in 10.0 mi NW 13.8 mph - N/A   Clear
3:35 AM 50.0 °F - 37.4 °F 62% 29.72 in 10.0 mi WNW 11.5 mph - N/A   Clear
3:55 AM 46.4 °F 40.7 °F 37.4 °F 71% 29.73 in 10.0 mi WNW 12.7 mph - N/A   Clear
4:15 AM 48.2 °F - 37.4 °F 66% 29.74 in 10.0 mi WNW 12.7 mph - N/A   Clear
4:35 AM 48.2 °F - 37.4 °F 66% 29.74 in 10.0 mi WNW 13.8 mph - N/A   Clear
4:55 AM 48.2 °F - 37.4 °F 66% 29.75 in 10.0 mi WNW 16.1 mph 20.7 mph N/A   Clear
5:15 AM 46.4 °F 40.1 °F 37.4 °F 71% 29.75 in 10.0 mi WNW 15.0 mph - N/A   Clear
5:35 AM 46.4 °F 40.1 °F 37.4 °F 71% 29.75 in 10.0 mi WNW 15.0 mph - N/A   Clear
5:55 AM 48.2 °F - 39.2 °F 71% 29.76 in 10.0 mi WNW 13.8 mph - N/A   Clear
6:15 AM 48.2 °F - 39.2 °F 71% 29.76 in 10.0 mi WNW 13.8 mph - N/A   Clear
6:35 AM 48.2 °F - 39.2 °F 71% 29.76 in 10.0 mi NW 17.3 mph 23.0 mph N/A   Clear
6:55 AM 48.2 °F - 39.2 °F 71% 29.77 in 10.0 mi NW 15.0 mph - N/A   Scattered Clouds
7:15 AM 46.4 °F 41.1 °F 39.2 °F 76% 29.78 in 10.0 mi NW 11.5 mph - N/A   Mostly Cloudy
7:35 AM 48.2 °F - 39.2 °F 71% 29.78 in 10.0 mi NW 11.5 mph - N/A   Mostly Cloudy
7:55 AM 48.2 °F - 39.2 °F 71% 29.78 in 10.0 mi NW 12.7 mph - N/A   Mostly Cloudy
8:15 AM 48.2 °F - 39.2 °F 71% 29.79 in 10.0 mi NW 10.4 mph - N/A   Scattered Clouds
8:35 AM 48.2 °F - 39.2 °F 71% 29.80 in 10.0 mi NW 10.4 mph - N/A   Partly Cloudy
8:55 AM 48.2 °F - 39.2 °F 71% 29.80 in 10.0 mi NW 15.0 mph 18.4 mph N/A   Partly Cloudy
9:35 AM 48.2 °F - 39.2 °F 71% 29.81 in 10.0 mi NW 13.8 mph - N/A   Clear
9:55 AM 48.2 °F - 39.2 °F 71% 29.81 in 10.0 mi NW 18.4 mph 23.0 mph N/A   Clear
10:15 AM 48.2 °F - 37.4 °F 66% 29.81 in 10.0 mi NW 20.7 mph 25.3 mph N/A   Partly Cloudy
10:35 AM 50.0 °F - 37.4 °F 62% 29.82 in 10.0 mi NNW 18.4 mph 26.5 mph N/A   Mostly Cloudy
10:55 AM 48.2 °F - 37.4 °F 66% 29.82 in 10.0 mi NNW 15.0 mph 25.3 mph N/A   Scattered Clouds
11:16 AM 50.0 °F - 35.6 °F 58% 29.81 in 10.0 mi NW 18.4 mph - N/A   Scattered Clouds
11:35 AM 50.0 °F - 35.6 °F 58% 29.81 in 10.0 mi NW 13.8 mph 23.0 mph N/A   Scattered Clouds
11:55 AM 51.8 °F - 33.8 °F 50% 29.81 in 10.0 mi NW 19.6 mph 23.0 mph N/A   Partly Cloudy
12:15 PM 51.8 °F - 33.8 °F 50% 29.81 in 10.0 mi NW 20.7 mph 24.2 mph N/A   Mostly Cloudy
12:35 PM 51.8 °F - 33.8 °F 50% 29.81 in 10.0 mi NW 20.7 mph 24.2 mph N/A   Overcast
12:55 PM 51.8 °F - 33.8 °F 50% 29.81 in 10.0 mi NNW 17.3 mph - N/A   Overcast
1:15 PM 51.8 °F - 33.8 °F 50% 29.80 in 10.0 mi WNW 19.6 mph 23.0 mph N/A   Mostly Cloudy
1:35 PM 51.8 °F - 33.8 °F 50% 29.80 in 10.0 mi WNW 16.1 mph 23.0 mph N/A   Overcast
1:55 PM 51.8 °F - 33.8 °F 50% 29.80 in 10.0 mi WNW 23.0 mph 28.8 mph N/A   Overcast
2:15 PM 51.8 °F - 33.8 °F 50% 29.79 in 10.0 mi WNW 23.0 mph 31.1 mph N/A   Mostly Cloudy
2:35 PM 53.6 °F - 33.8 °F 47% 29.79 in 10.0 mi WNW 21.9 mph 32.2 mph N/A   Scattered Clouds
2:55 PM 51.8 °F - 32.0 °F 47% 29.80 in 10.0 mi WNW 23.0 mph 31.1 mph N/A   Scattered Clouds
3:35 PM 50.0 °F - 28.4 °F 43% 29.80 in 10.0 mi NW 21.9 mph 31.1 mph N/A   Clear
4:15 PM 50.0 °F - 28.4 °F 43% 29.81 in 10.0 mi NW 19.6 mph 26.5 mph N/A   Clear
4:35 PM 48.2 °F - 28.4 °F 46% 29.81 in 10.0 mi NW 19.6 mph 28.8 mph N/A   Clear
4:55 PM 48.2 °F - 28.4 °F 46% 29.81 in 10.0 mi NW 20.7 mph 29.9 mph N/A   Clear
5:15 PM 48.2 °F - 28.4 °F 46% 29.82 in 10.0 mi NW 18.4 mph 24.2 mph N/A   Clear
5:35 PM 48.2 °F - 28.4 °F 46% 29.82 in 10.0 mi NW 21.9 mph 26.5 mph N/A   Clear
5:55 PM 46.4 °F 38.7 °F 28.4 °F 50% 29.83 in 10.0 mi NW 20.7 mph 27.6 mph N/A   Clear
6:15 PM 46.4 °F 39.0 °F 24.8 °F 43% 29.84 in 10.0 mi NW 19.6 mph 26.5 mph N/A   Clear
6:35 PM 44.6 °F 36.4 °F 24.8 °F 46% 29.85 in 10.0 mi NW 20.7 mph 25.3 mph N/A   Mostly Cloudy
6:55 PM 44.6 °F 36.6 °F 24.8 °F 46% 29.86 in 10.0 mi NW 19.6 mph 25.3 mph N/A   Mostly Cloudy
7:15 PM 44.6 °F 37.4 °F 24.8 °F 46% 29.86 in 10.0 mi NW 16.1 mph 23.0 mph N/A   Partly Cloudy
7:35 PM 44.6 °F 37.4 °F 24.8 °F 46% 29.87 in 10.0 mi NW 16.1 mph 24.2 mph N/A   Scattered Clouds
7:55 PM 42.8 °F 34.5 °F 24.8 °F 49% 29.88 in 10.0 mi NW 18.4 mph 24.2 mph N/A   Scattered Clouds
8:15 PM 42.8 °F 35.1 °F 24.8 °F 49% 29.89 in 10.0 mi NW 16.1 mph - N/A   Clear
8:35 PM 42.8 °F 35.1 °F 24.8 °F 49% 29.89 in 10.0 mi NW 16.1 mph 21.9 mph N/A   Clear
8:55 PM 42.8 °F 33.5 °F 24.8 °F 49% 29.90 in 10.0 mi NW 23.0 mph 29.9 mph N/A   Partly Cloudy
9:15 PM 42.8 °F 34.8 °F 24.8 °F 49% 29.92 in 10.0 mi NNW 17.3 mph 27.6 mph N/A   Mostly Cloudy
9:35 PM 41.0 °F 32.2 °F 23.0 °F 49% 29.92 in 10.0 mi NW 18.4 mph 24.2 mph N/A   Overcast
9:55 PM 41.0 °F 33.1 °F 23.0 °F 49% 29.93 in 10.0 mi NW 15.0 mph 21.9 mph N/A   Mostly Cloudy
10:16 PM 41.0 °F 33.1 °F 24.8 °F 53% 29.94 in 10.0 mi NW 15.0 mph 21.9 mph N/A   Partly Cloudy
10:35 PM 39.2 °F 30.5 °F 23.0 °F 52% 29.94 in 10.0 mi NW 16.1 mph 21.9 mph N/A   Clear
10:55 PM 39.2 °F 30.8 °F 23.0 °F 52% 29.94 in 10.0 mi NW 15.0 mph - N/A   Scattered Clouds
11:15 PM 39.2 °F 31.6 °F 23.0 °F 52% 29.94 in 10.0 mi NW 12.7 mph - N/A   Clear
11:35 PM 37.4 °F 30.3 °F 23.0 °F 56% 29.94 in 10.0 mi WNW 10.4 mph - N/A   Clear
11:55 PM 37.4 °F 31.4 °F 23.0 °F 56% 29.95 in 10.0 mi West 8.1 mph - N/A   Clear